Location: Emporia
(38.4040°N, 96.1810°W)
Time: 08:22:42
(UTC-05:00)

Amateur Radio Satellites - All Passes

Search period start: 22 September 2017 07:52
Search period end: 23 September 2017 07:52
Location: Emporia, 38.4040°N, 96.1810°W

Satellite Date Start Highest point End Downlink Frequencies (MHz)
Time Altitude Azimuth
KAITUO 1B 22 Sep 07:53:38 07:57:22 70° 284° (WNW) 08:01:04 145.475/437.950
CUTE-I 22 Sep 08:09:51 08:15:08 64° 287° (WNW) 08:20:23 437.470
XW-2A 22 Sep 08:10:29 08:12:10 13° 93° (E) 08:13:51 145.665 - 145.685
XW-2D 22 Sep 08:19:37 08:22:41 23° 290° (WNW) 08:25:44 145.860 - 145.880
FO-29 22 Sep 08:22:11 08:25:19 15° 64° (ENE) 08:28:20 435.910
SEEDS 22 Sep 08:25:15 08:29:06 35° 97° (E) 08:32:55 437.485
ZACube-1 22 Sep 08:29:50 08:31:09 11° 90° (E) 08:32:27 437.345
RS-15 22 Sep 08:30:07 08:41:17 38° 319° (NW) 08:52:29 29.354- 29.394
XW-2B 22 Sep 08:32:18 08:34:55 18° 292° (WNW) 08:37:31 145.730 - 145.750
XW-2F 22 Sep 08:33:41 08:36:17 18° 291° (WNW) 08:38:52 145.980 - 146.000
STRAND 1 22 Sep 08:47:59 08:52:36 35° 262° (W) 08:57:17 437.568
HO-68 22 Sep 08:48:39 08:55:53 84° 105° (ESE) 09:03:06 435.675
CUTE 1.7 + AOD 2 22 Sep 08:49:46 08:53:59 68° 284° (WNW) 08:58:09 437.475
AAUSAT CUBESAT 2 22 Sep 08:53:09 08:56:51 31° 97° (E) 09:00:29 437.432
CUBEBUG 2 22 Sep 09:01:19 09:06:02 85° 101° (E) 09:10:48 437.445
NUDT-PHONESAT 22 Sep 09:04:19 09:05:00 10° 295° (WNW) 09:05:41 437.300
UWE-3 22 Sep 09:11:48 09:16:27 64° 101° (E) 09:21:04 435.000/436.395/437.385
TIGRISAT 22 Sep 09:18:33 09:20:07 12° 63° (ENE) 09:21:42 435.000
XW-2A 22 Sep 09:41:56 09:44:57 29° 288° (WNW) 09:47:56 145.665 - 145.685
AO-73 22 Sep 10:01:23 10:05:58 77° 283° (WNW) 10:10:30 145.935
SEEDS 22 Sep 10:01:43 10:04:30 18° 293° (WNW) 10:07:16 437.485
Oscar 11 22 Sep 10:02:26 10:06:48 76° 101° (E) 10:11:06 .
ZACube-1 22 Sep 10:03:15 10:07:48 65° 285° (WNW) 10:12:20 437.345
FO-29 22 Sep 10:04:08 10:09:59 66° 258° (WSW) 10:15:19 435.910
PRISM 22 Sep 10:19:40 10:23:17 32° 71° (ENE) 10:26:56 437.425
Max Valier Satellite 22 Sep 10:26:28 10:29:17 20° 95° (E) 10:32:04 145.860
UNISAT 6 22 Sep 10:27:44 10:32:02 77° 76° (ENE) 10:36:27 437.425
AAUSAT CUBESAT 2 22 Sep 10:29:10 10:32:03 19° 292° (WNW) 10:34:55 437.432
DELFI C3 22 Sep 10:36:29 10:40:08 37° 98° (E) 10:43:46 145.870
HO-68 22 Sep 10:38:07 10:42:43 19° 303° (WNW) 10:47:20 435.675
UWE-3 22 Sep 10:50:12 10:52:19 13° 296° (WNW) 10:54:26 435.000/436.395/437.385
RS-15 22 Sep 10:50:58 10:58:53 19° 352° (N) 11:06:42 29.354- 29.394
TIGRISAT 22 Sep 10:51:59 10:56:13 61° 260° (W) 11:00:35 435.000
DUCHIFAT 1 22 Sep 11:26:56 11:28:11 11° 64° (ENE) 11:29:26 145.980
AIST 2D 22 Sep 11:28:45 11:31:59 34° 73° (ENE) 11:35:15 435.315
EO-88 22 Sep 11:30:00 11:33:40 79° 283° (WNW) 11:37:17 145.990 - 145.960
POLYITAN 1 22 Sep 11:36:25 11:39:23 19° 67° (ENE) 11:42:21 437.675
EO-79 22 Sep 11:40:56 11:44:05 21° 68° (ENE) 11:47:16 145.935-145.965
QB50P2 22 Sep 11:53:19 11:57:03 32° 71° (ENE) 12:00:48 145.880/145.840
PRISM 22 Sep 11:55:45 11:58:36 18° 265° (W) 12:01:28 437.425
ESTCUBE 1 22 Sep 11:57:11 12:00:12 17° 93° (E) 12:03:10 437.505/2401.250
Max Valier Satellite 22 Sep 12:00:00 12:03:02 24° 290° (WNW) 12:06:02 145.860
M-CUBED/EXP-1 PRIME 22 Sep 12:07:07 12:10:22 21° 65° (ENE) 12:13:28 437.505
DELFI C3 22 Sep 12:12:22 12:14:33 15° 293° (WNW) 12:16:43 145.870
NANOSAT C BR1 22 Sep 12:29:50 12:33:58 69° 75° (ENE) 12:38:10 145.865
LO-87 22 Sep 12:31:10 12:34:47 70° 101° (ESE) 12:38:22 145.935 - 145.965
SPROUT 22 Sep 12:44:03 12:46:05 13° 92° (E) 12:48:06 437.525
O/OREOS (USA 219) 22 Sep 12:50:26 12:54:43 36° 63° (ENE) 12:58:58 437.305
DUCHIFAT 1 22 Sep 12:59:12 13:03:17 59° 260° (W) 13:07:27 145.980
AIST 2D 22 Sep 13:03:53 13:05:18 12° 268° (W) 13:06:42 435.315
YUBILEINY 22 Sep 13:04:12 13:12:46 66° 92° (E) 13:21:21 435.215
Gurwin Techsat 1B 22 Sep 13:06:16 13:09:17 15° 62° (ENE) 13:12:17 435.225
RS-15 22 Sep 13:07:49 13:17:33 27° 29° (NNE) 13:26:52 29.354- 29.394
POLYITAN 1 22 Sep 13:11:06 13:14:54 33° 263° (W) 13:18:45 437.675
EO-79 22 Sep 13:15:59 13:19:39 29° 263° (W) 13:23:22 145.935-145.965
QB50P2 22 Sep 13:29:52 13:32:52 19° 266° (W) 13:35:54 145.880/145.840
Oscar 19 22 Sep 13:30:43 13:35:28 38° 70° (ENE) 13:40:15 437.125/150
ESTCUBE 1 22 Sep 13:32:56 13:37:07 39° 288° (WNW) 13:41:17 437.505/2401.250
BUGSAT 1 22 Sep 13:40:18 13:44:19 80° 259° (W) 13:48:22 437.445
M-CUBED/EXP-1 PRIME 22 Sep 13:40:38 13:44:35 32° 257° (WSW) 13:48:19 437.505
NO-84 22 Sep 13:46:49 13:50:40 55° 132° (SE) 13:54:14 435.350 FM
DX 1 22 Sep 13:47:26 13:48:58 12° 92° (E) 13:50:30 434.975-435.025
VELOX 1 22 Sep 14:07:50 14:12:15 87° 105° (ESE) 14:16:38 145.980
50 SAT 22 Sep 14:13:30 14:16:23 28° 98° (E) 14:19:16 437.505
SPROUT 22 Sep 14:18:04 14:22:12 48° 287° (WNW) 14:26:20 437.525
O/OREOS (USA 219) 22 Sep 14:30:29 14:33:49 20° 259° (W) 14:37:09 437.305
SO-50 22 Sep 14:41:30 14:45:47 46° 116° (ESE) 14:50:05 436.795
Gurwin Techsat 1B 22 Sep 14:43:21 14:48:37 67° 258° (WSW) 14:53:56 435.225
AO-7 22 Sep 14:51:09 14:58:25 35° 60° (ENE) 15:05:40 .
YUBILEINY 22 Sep 15:03:20 15:10:12 25° 292° (WNW) 15:17:06 435.215
Oscar 19 22 Sep 15:10:41 15:14:51 24° 265° (W) 15:19:03 437.125/150
UKube-1 22 Sep 15:17:03 15:21:23 83° 106° (ESE) 15:25:40 .
RS-15 22 Sep 15:20:28 15:32:30 75° 57° (ENE) 15:43:49 29.354- 29.394
DX 1 22 Sep 15:21:13 15:25:27 55° 286° (WNW) 15:29:41 434.975-435.025
NO-84 22 Sep 15:25:32 15:28:15 19° 327° (NNW) 15:30:50 435.350 FM
PCSat 22 Sep 15:34:33 15:39:56 72° 115° (ESE) 15:45:22 145.827
BEESAT 22 Sep 15:37:58 15:40:49 16° 93° (E) 15:43:39 436.000
50 SAT 22 Sep 15:47:00 15:48:36 13° 292° (WNW) 15:50:13 437.505
ITAMSAT 1 22 Sep 16:11:18 16:16:27 84° 75° (ENE) 16:21:39 435.822/435.867
MOZHAYETS 4 22 Sep 16:19:46 16:24:13 44° 99° (E) 16:28:36
SO-50 22 Sep 16:23:07 16:26:27 20° 313° (NW) 16:29:48 436.795
ITUPSAT 1 22 Sep 16:36:30 16:41:18 64° 102° (ESE) 16:46:04 437.325
AO-7 22 Sep 16:42:46 16:50:50 53° 258° (WSW) 16:58:56 .
CUBESAT XI-V 22 Sep 16:43:52 16:46:40 16° 92° (E) 16:49:29 437.345
DOVE 4 22 Sep 16:55:53 16:58:53 18° 68° (ENE) 17:01:49 437.250
BEESAT 22 Sep 17:14:12 17:18:50 50° 288° (WNW) 17:23:27 436.000
PCSat 22 Sep 17:20:17 17:23:53 18° 314° (NW) 17:27:31 145.827
RS-15 22 Sep 17:34:24 17:43:40 29° 258° (WSW) 17:52:37 29.354- 29.394
XW-2B 22 Sep 17:38:58 17:40:31 12° 66° (ENE) 17:42:04 145.730 - 145.750
XW-2F 22 Sep 17:40:05 17:41:32 12° 66° (ENE) 17:42:59 145.980 - 146.000
CUTE-I 22 Sep 17:51:48 17:55:47 22° 65° (ENE) 17:59:47 437.470
MOZHAYETS 4 22 Sep 17:57:55 18:00:59 18° 294° (WNW) 18:04:03
XW-2C 22 Sep 17:58:40 18:01:37 21° 70° (ENE) 18:04:35 145.795 - 145.815
NUDT-PHONESAT 22 Sep 18:06:12 18:08:48 18° 69° (ENE) 18:11:26 437.300
LilacSat-2 22 Sep 18:08:57 18:12:22 30° 72° (ENE) 18:15:48 437.200
ITUPSAT 1 22 Sep 18:16:11 18:18:32 14° 298° (WNW) 18:20:54 437.325
CUBESAT XI-V 22 Sep 18:19:50 18:24:16 45° 287° (WNW) 18:28:38 437.345
KKS-1 22 Sep 18:25:24 18:29:50 69° 101° (E) 18:34:16 437.445
KAITUO 1B 22 Sep 18:31:40 18:35:13 39° 73° (ENE) 18:38:47 145.475/437.950
DOVE 4 22 Sep 18:32:10 18:36:21 37° 262° (W) 18:40:21 437.250
STARS 22 Sep 18:53:12 18:57:31 54° 100° (E) 19:01:50 437.465
XW-2D 22 Sep 18:58:08 19:01:55 62° 260° (W) 19:05:45 145.860 - 145.880
XW-2B 22 Sep 19:10:35 19:14:16 44° 261° (W) 19:17:58 145.730 - 145.750
XW-2F 22 Sep 19:11:32 19:15:13 45° 261° (W) 19:18:55 145.980 - 146.000
HO-68 22 Sep 19:15:18 19:22:11 54° 68° (ENE) 19:29:06 435.675
SEEDS 22 Sep 19:15:43 19:18:54 21° 69° (ENE) 19:22:06 437.485
CUTE-I 22 Sep 19:30:27 19:35:29 45° 261° (W) 19:40:35 437.470
XW-2C 22 Sep 19:32:32 19:35:40 24° 265° (W) 19:38:49 145.795 - 145.815
NUDT-PHONESAT 22 Sep 19:39:16 19:42:28 26° 264° (W) 19:45:41 437.300
CUTE 1.7 + AOD 2 22 Sep 19:40:15 19:44:30 67° 75° (ENE) 19:48:46 437.475
AAUSAT CUBESAT 2 22 Sep 19:42:17 19:45:08 18° 68° (ENE) 19:47:59 437.432
LilacSat-2 22 Sep 19:44:08 19:46:40 17° 266° (W) 19:49:13 437.200
Tancredo 1 22 Sep 19:54:32 19:57:03 36° 136° (SE) 19:59:34 437.200
CUBEBUG 2 22 Sep 19:57:48 20:01:54 55° 74° (ENE) 20:06:10 437.445
KKS-1 22 Sep 20:04:32 20:05:47 11° 298° (WNW) 20:07:03 437.445
UWE-3 22 Sep 20:07:12 20:11:11 39° 72° (ENE) 20:15:18 435.000/436.395/437.385
KAITUO 1B 22 Sep 20:07:44 20:09:22 12° 268° (W) 20:10:59 145.475/437.950
XW-2A 22 Sep 20:10:43 20:14:04 62° 77° (ENE) 20:17:29 145.665 - 145.685
AO-85 22 Sep 20:10:45 20:11:47 11° 108° (ESE) 20:12:49 145.980
JUGNU 22 Sep 20:13:07 20:13:49 10° 172° (S) 20:14:31 437.505
NO-84 22 Sep 20:22:33 20:24:31 16° 31° (NNE) 20:26:26 435.350 FM
BEESAT 3 22 Sep 20:24:26 20:28:21 58° 118° (ESE) 20:32:19 437.485
BEESAT 2 22 Sep 20:30:23 20:33:13 19° 111° (ESE) 20:36:05 435.950
STARS 22 Sep 20:31:15 20:33:22 13° 296° (WNW) 20:35:31 437.465
nSIGHT-1 22 Sep 20:32:56 20:34:49 15° 129° (SE) 20:36:42 .
SEEDS 22 Sep 20:50:39 20:54:23 30° 264° (W) 20:58:08 437.485
AO-73 22 Sep 20:54:50 20:59:05 66° 75° (ENE) 21:03:29 145.935
Oscar 11 22 Sep 20:55:21 20:59:31 46° 73° (ENE) 21:03:42 .
ZACube-1 22 Sep 20:56:58 21:01:15 80° 76° (ENE) 21:05:41 437.345
STRAND 1 22 Sep 20:59:15 21:04:26 88° 105° (ESE) 21:09:35 437.568
HO-68 22 Sep 21:04:19 21:10:10 27° 265° (W) 21:16:03 435.675
FO-29 22 Sep 21:15:16 21:18:23 15° 93° (E) 21:21:37 435.910
AAUSAT CUBESAT 2 22 Sep 21:16:31 21:20:19 34° 263° (W) 21:24:07 437.432
DELFI C3 22 Sep 21:20:54 21:23:38 18° 68° (ENE) 21:26:20 145.870
ISS 22 Sep 21:26:11 21:29:22 51° 136° (SE) 21:32:34 437.550
Tancredo 1 22 Sep 21:29:42 21:31:39 18° 332° (NNW) 21:33:38 437.200
CUBEBUG 2 22 Sep 21:37:42 21:38:54 11° 270° (W) 21:40:06 437.445
UWE-3 22 Sep 21:45:11 21:47:49 16° 268° (W) 21:50:31 435.000/436.395/437.385
AO-85 22 Sep 21:47:51 21:51:39 51° 304° (WNW) 21:55:30 145.980
NO-84 22 Sep 21:59:17 22:02:01 38° 230° (SW) 22:04:41 435.350 FM
JUGNU 22 Sep 21:59:48 22:01:55 12° 182° (S) 22:04:02 437.505
BEESAT 3 22 Sep 22:04:01 22:06:15 14° 315° (NW) 22:08:31 437.485
EO-88 22 Sep 22:06:00 22:09:18 32° 72° (ENE) 22:12:36 145.990 - 145.960
BEESAT 2 22 Sep 22:07:01 22:10:41 34° 307° (NW) 22:14:26 435.950
nSIGHT-1 22 Sep 22:07:42 22:10:50 49° 325° (NW) 22:14:00 .
UNISAT 6 22 Sep 22:21:26 22:24:48 19° 93° (E) 22:28:10 437.425
Oscar 11 22 Sep 22:33:34 22:35:51 14° 268° (W) 22:38:10 .
Max Valier Satellite 22 Sep 22:36:10 22:39:50 69° 258° (WSW) 22:43:35 145.860
STRAND 1 22 Sep 22:41:23 22:42:50 11° 300° (WNW) 22:44:16 437.568
TIGRISAT 22 Sep 22:44:46 22:48:57 31° 97° (E) 22:53:07 435.000
DELFI C3 22 Sep 22:54:38 22:58:08 30° 263° (W) 23:01:39 145.870
ESTCUBE 1 22 Sep 22:55:56 22:58:24 15° 65° (ENE) 23:00:53 437.505/2401.250
FO-29 22 Sep 22:58:19 23:03:46 68° 285° (WNW) 23:09:50 435.910
ISS 22 Sep 23:03:28 23:06:02 21° 334° (NNW) 23:08:36 437.550
LO-87 22 Sep 23:06:11 23:08:53 21° 70° (ENE) 23:11:35 145.935 - 145.965
SO-50 22 Sep 23:14:03 23:18:04 29° 50° (NE) 23:22:06 436.795
YUBILEINY 22 Sep 23:16:43 23:24:06 30° 70° (ENE) 23:31:28 435.215
SRMSAT 22 Sep 23:23:31 23:24:56 11° 173° (S) 23:26:20 437.500
PRISM 22 Sep 23:36:48 23:40:50 64° 102° (ESE) 23:44:51 437.425
EO-88 22 Sep 23:41:03 23:43:01 14° 267° (W) 23:45:00 145.990 - 145.960
nSIGHT-1 22 Sep 23:46:25 23:47:47 12° 343° (NNW) 23:49:09 .
UNISAT 6 22 Sep 23:57:14 00:01:35 39° 288° (WNW) 00:05:57 437.425
NANOSAT C BR1 23 Sep 00:17:20 00:19:09 12° 92° (E) 00:20:57 145.865
TIGRISAT 23 Sep 00:21:40 00:25:27 25° 291° (WNW) 00:29:14 435.000
PCSat 23 Sep 00:24:02 00:29:11 41° 56° (NE) 00:34:16 145.827
AIST 2D 23 Sep 00:27:47 00:31:14 53° 100° (E) 00:34:40 435.315
ESTCUBE 1 23 Sep 00:30:18 00:34:44 53° 260° (W) 00:39:11 437.505/2401.250
LO-87 23 Sep 00:39:34 00:42:11 20° 265° (W) 00:44:50 145.935 - 145.965
DUCHIFAT 1 23 Sep 00:44:56 00:48:21 23° 95° (E) 00:51:45 145.980
SO-50 23 Sep 00:54:27 00:58:28 30° 247° (WSW) 01:02:32 436.795
POLYITAN 1 23 Sep 00:56:48 01:00:52 41° 99° (E) 01:04:55 437.675
EO-79 23 Sep 01:01:18 01:05:26 46° 99° (E) 01:09:33 145.935-145.965
VELOX 1 23 Sep 01:03:10 01:07:30 63° 75° (ENE) 01:11:51 145.980
SPROUT 23 Sep 01:09:13 01:13:27 81° 258° (WSW) 01:17:42 437.525
SRMSAT 23 Sep 01:11:12 01:13:10 12° 184° (S) 01:15:08 437.500
YUBILEINY 23 Sep 01:12:51 01:21:18 57° 270° (W) 01:29:46 435.215
QB50P2 23 Sep 01:14:29 01:18:47 76° 103° (ESE) 01:23:03 145.880/145.840
M-CUBED/EXP-1 PRIME 23 Sep 01:21:48 01:23:16 12° 98° (E) 01:24:43 437.505
BUGSAT 1 23 Sep 01:24:20 01:27:01 16° 93° (E) 01:29:42 437.445
Oscar 19 23 Sep 01:45:11 01:47:55 14° 91° (E) 01:50:38 437.125/150
NANOSAT C BR1 23 Sep 01:50:58 01:55:06 50° 287° (WNW) 01:59:14 145.865
PCSat 23 Sep 02:07:55 02:12:18 25° 253° (WSW) 02:16:39 145.827
UKube-1 23 Sep 02:09:38 02:13:50 56° 73° (ENE) 02:18:02 .
50 SAT 23 Sep 02:13:29 02:16:42 49° 260° (W) 02:19:56 437.505
DX 1 23 Sep 02:14:42 02:19:02 79° 257° (WSW) 02:23:23 434.975-435.025
Tancredo 1 23 Sep 02:15:51 02:18:08 24° 31° (NNE) 02:20:24 437.200
ISS 23 Sep 02:20:15 02:21:17 11° 15° (NNE) 02:22:18 437.550
DUCHIFAT 1 23 Sep 02:20:21 02:23:57 27° 290° (WNW) 02:27:32 145.980
POLYITAN 1 23 Sep 02:33:37 02:36:17 16° 294° (WNW) 02:38:58 437.675
EO-79 23 Sep 02:38:25 02:40:46 15° 295° (WNW) 02:43:07 145.935-145.965
BEESAT 23 Sep 02:43:12 02:46:07 16° 64° (ENE) 02:49:02 436.000
VELOX 1 23 Sep 02:43:29 02:44:19 10° 269° (W) 02:45:08 145.980
M-CUBED/EXP-1 PRIME 23 Sep 02:54:57 02:57:49 27° 294° (WNW) 03:00:37 437.505
BUGSAT 1 23 Sep 02:58:34 03:02:28 37° 288° (WNW) 03:06:22 437.445
nSIGHT-1 23 Sep 03:00:30 03:02:47 17° 24° (NNE) 03:05:03 .
O/OREOS (USA 219) 23 Sep 03:00:55 03:05:18 56° 107° (ESE) 03:09:45 437.305
Gurwin Techsat 1B 23 Sep 03:01:03 03:06:16 55° 101° (E) 03:11:28 435.225
MOZHAYETS 4 23 Sep 03:20:00 03:24:12 35° 71° (ENE) 03:28:24
Oscar 19 23 Sep 03:22:32 03:27:38 61° 287° (WNW) 03:32:41 437.125/150
ITUPSAT 1 23 Sep 03:41:30 03:46:11 63° 74° (ENE) 03:50:56 437.325
CUBESAT XI-V 23 Sep 03:46:12 03:48:45 15° 64° (ENE) 03:51:16 437.345
UKube-1 23 Sep 03:48:47 03:50:09 11° 268° (W) 03:51:32 .
Tancredo 1 23 Sep 03:50:21 03:52:35 23° 227° (SW) 03:54:49 437.200
ISS 23 Sep 03:55:22 03:58:29 38° 33° (NNE) 04:01:35 437.550
BEESAT 23 Sep 04:18:49 04:23:26 51° 260° (W) 04:28:06 436.000
ITAMSAT 1 23 Sep 04:25:55 04:30:36 33° 97° (E) 04:35:15 435.822/435.867
nSIGHT-1 23 Sep 04:36:10 04:39:25 73° 221° (SW) 04:42:39 .
AO-85 23 Sep 04:41:33 04:42:41 11° 42° (NE) 04:43:49 145.980
Gurwin Techsat 1B 23 Sep 04:42:12 04:45:45 18° 297° (WNW) 04:49:18 435.225
O/OREOS (USA 219) 23 Sep 04:42:37 04:45:05 14° 305° (NW) 04:47:35 437.305
BEESAT 3 23 Sep 04:42:56 04:46:04 22° 49° (NE) 04:49:09 437.485
AO-7 23 Sep 04:45:40 04:53:52 60° 104° (ESE) 05:01:59 .
MOZHAYETS 4 23 Sep 04:57:57 05:01:24 21° 266° (W) 05:04:53
CUBESAT XI-V 23 Sep 05:20:58 05:25:36 57° 260° (W) 05:30:14 437.345
KKS-1 23 Sep 05:21:42 05:25:59 51° 73° (ENE) 05:30:16 437.445
ITUPSAT 1 23 Sep 05:22:29 05:24:24 12° 269° (W) 05:26:20 437.325
ISS 23 Sep 05:32:17 05:34:47 20° 229° (SW) 05:37:17 437.550
RS-15 23 Sep 05:40:05 05:51:51 58° 111° (ESE) 06:03:45 29.354- 29.394
STARS 23 Sep 05:48:10 05:52:13 39° 72° (ENE) 05:56:17 437.465
ITAMSAT 1 23 Sep 06:05:30 06:09:55 29° 293° (WNW) 06:14:19 435.822/435.867
AO-85 23 Sep 06:19:12 06:23:42 78° 58° (ENE) 06:28:33 145.980
BEESAT 3 23 Sep 06:20:08 06:23:38 31° 247° (WSW) 06:27:05 437.485
BEESAT 2 23 Sep 06:25:27 06:29:32 83° 62° (ENE) 06:33:30 435.950
DOVE 4 23 Sep 06:31:22 06:35:34 59° 100° (E) 06:39:57 437.250
XW-2D 23 Sep 06:33:19 06:35:27 14° 93° (E) 06:37:34 145.860 - 145.880
STRAND 1 23 Sep 06:38:03 06:40:09 13° 61° (ENE) 06:42:16 437.568
AO-7 23 Sep 06:39:12 06:46:06 31° 302° (WNW) 06:53:00 .
XW-2B 23 Sep 06:45:04 06:47:52 19° 94° (E) 06:50:39 145.730 - 145.750
XW-2F 23 Sep 06:45:38 06:48:21 19° 94° (E) 06:51:03 145.980 - 146.000
KKS-1 23 Sep 07:00:45 07:02:49 13° 268° (W) 07:04:52 437.445
XW-2C 23 Sep 07:05:47 07:09:20 36° 98° (E) 07:12:50 145.795 - 145.815
NUDT-PHONESAT 23 Sep 07:10:31 07:13:47 28° 96° (E) 07:17:01 437.300
LilacSat-2 23 Sep 07:17:11 07:20:58 56° 100° (E) 07:24:42 437.200
STARS 23 Sep 07:25:55 07:28:41 17° 267° (W) 07:31:28 437.465
CUTE 1.7 + AOD 2 23 Sep 07:28:25 07:30:17 13° 91° (E) 07:32:08 437.475
KAITUO 1B 23 Sep 07:37:42 07:41:26 70° 101° (E) 07:45:08 145.475/437.950
